Location: Heisede
(52.2582°N, 9.8523°E)
Time: 15:07:09
(UTC+00:00)

Cosmos 1745 Rocket - Visible Passes

Search period start: 11 April 2026 00:00
Search period end: 21 April 2026 00:00
Orbit: 952 x 997 km, 83.0° (Epoch: 11 April)

Date Brightness Start Highest point End Pass type
(mag) Time Alt. Az. Time Alt. Az. Time Alt. Az.
11 Apr 7.4 02:07:15 10° NNE 02:08:49 11° NE 02:10:21 10° ENE visible
11 Apr 5.3 03:50:01 10° N 03:56:01 46° ENE 04:01:54 10° SE visible
11 Apr 6.4 19:12:20 10° WSW 19:17:40 28° WNW 19:23:01 10° N visible
12 Apr 7.0 02:30:40 10° NNE 02:34:37 17° NE 02:38:30 10° E visible
12 Apr 7.1 19:39:00 10° W 19:43:14 18° NW 19:47:29 10° NNW visible
13 Apr 6.4 02:55:05 10° N 03:00:13 26° ENE 03:05:16 10° ESE visible
13 Apr 7.5 20:06:47 10° WNW 20:09:00 12° NW 20:11:14 10° NNW visible
14 Apr 5.6 03:19:47 10° N 03:25:37 40° ENE 03:31:21 10° SE visible
14 Apr 6.3 18:41:41 10° SW 18:47:15 32° WNW 18:52:48 10° N visible
15 Apr 7.0 02:00:41 10° NNE 02:04:05 15° NE 02:07:27 10° E visible
15 Apr 4.6 03:44:39 10° N 03:50:51 64° ENE 03:56:56 10° SSE visible
15 Apr 7.0 19:08:08 10° WSW 19:12:46 21° WNW 19:17:22 10° N visible
16 Apr 6.5 02:24:56 10° N 02:29:45 23° ENE 02:34:29 10° ESE visible
16 Apr 7.3 19:35:28 10° W 19:38:28 13° NW 19:41:26 10° NNW visible
17 Apr 5.8 02:49:34 10° N 02:55:12 35° ENE 03:00:46 10° SE visible
18 Apr 7.0 01:30:49 10° NNE 01:33:32 13° NE 01:36:15 10° ENE visible
18 Apr 4.8 03:14:23 10° N 03:20:29 55° ENE 03:26:30 10° SSE visible
19 Apr 6.6 01:54:49 10° NNE 01:59:15 20° ENE 02:03:39 10° ESE visible
19 Apr 7.1 19:04:22 10° W 19:07:56 15° NW 19:11:30 10° NNW visible
20 Apr 5.9 02:19:21 10° N 02:24:47 30° ENE 02:30:07 10° SE visible
